Time,TemperatureF,DewpointF,PressureIn,WindDirection,WindDirectionDegrees,WindSpeedMPH,WindSpeedGustMPH,Humidity,HourlyPrecipIn,Conditions,Clouds,dailyrainin,SoftwareType,DateUTC
2013-03-23 00:03:00,43.0,-99.9,-100.00,NW,321,1.0,-999.0,-999,-99.99,,,-99.99,,2013-03-23 04:03:00,
2013-03-23 00:13:00,43.0,-99.9,-100.00,WNW,303,1.0,-999.0,-999,-99.99,,,0.00,,2013-03-23 04:13:00,
2013-03-23 00:23:00,43.0,-99.9,-100.00,NW,309,0.0,-999.0,-999,-99.99,,,-99.99,,2013-03-23 04:23:00,
2013-03-23 00:33:00,43.0,-99.9,-100.00,NW,309,0.0,-999.0,-999,-99.99,,,-99.99,,2013-03-23 04:33:00,
2013-03-23 00:43:00,43.0,-99.9,-100.00,NNW,345,1.0,-999.0,-999,-99.99,,,-99.99,,2013-03-23 04:43:00,
2013-03-23 00:53:00,43.0,-99.9,-100.00,West,274,2.0,-999.0,-999,-99.99,,,-99.99,,2013-03-23 04:53:00,
2013-03-23 01:02:00,43.0,-99.9,-100.00,West,274,2.0,-999.0,-999,-99.99,,,-99.99,,2013-03-23 05:02:00,
2013-03-23 01:12:00,43.0,-99.9,-100.00,South,172,1.0,-999.0,-999,-99.99,,,-99.99,,2013-03-23 05:12:00,
2013-03-23 01:22:00,43.0,-99.9,-100.00,East,84,3.0,-999.0,-999,-99.99,,,-99.99,,2013-03-23 05:22:00,
2013-03-23 01:33:00,43.0,-99.9,-100.00,East,84,3.0,-999.0,-999,-99.99,,,-99.99,,2013-03-23 05:33:00,
2013-03-23 01:42:00,43.0,-99.9,-100.00,East,84,3.0,-999.0,-999,-99.99,,,-99.99,,2013-03-23 05:42:00,
2013-03-23 01:53:00,43.0,-99.9,-100.00,WSW,245,2.0,-999.0,-999,-99.99,,,-99.99,,2013-03-23 05:53:00,
2013-03-23 02:00:00,42.0,-99.9,-100.00,North,356,2.0,-999.0,-999,-99.99,,,-99.99,,2013-03-23 06:00:00,
2013-03-23 02:02:00,43.0,-99.9,-100.00,WSW,245,2.0,-999.0,-999,-99.99,,,-99.99,,2013-03-23 06:02:00,
2013-03-23 02:13:00,42.0,-99.9,-100.00,West,262,1.0,-999.0,-999,-99.99,,,-99.99,,2013-03-23 06:13:00,
2013-03-23 02:22:00,42.0,-99.9,-100.00,NW,318,2.0,-999.0,-999,-99.99,,,-99.99,,2013-03-23 06:22:00,
2013-03-23 02:32:00,42.0,-99.9,-100.00,NW,318,2.0,-999.0,-999,-99.99,,,-99.99,,2013-03-23 06:32:00,
2013-03-23 02:42:00,42.0,-99.9,-100.00,North,356,2.0,-999.0,-999,-99.99,,,-99.99,,2013-03-23 06:42:00,
2013-03-23 02:52:00,42.0,-99.9,-100.00,North,356,2.0,-999.0,-999,-99.99,,,-99.99,,2013-03-23 06:52:00,
2013-03-23 03:12:00,42.0,-99.9,-100.00,NNW,327,2.0,-999.0,-999,-99.99,,,-99.99,,2013-03-23 07:12:00,
2013-03-23 03:23:00,41.0,-99.9,-100.00,South,185,2.0,-999.0,-999,-99.99,,,-99.99,,2013-03-23 07:23:00,
2013-03-23 03:33:00,41.0,-99.9,-100.00,South,185,2.0,-999.0,-999,-99.99,,,-99.99,,2013-03-23 07:33:00,
2013-03-23 03:43:00,40.0,-99.9,-100.00,SW,219,1.0,-999.0,-999,-99.99,,,-99.99,,2013-03-23 07:43:00,
2013-03-23 03:52:00,40.0,-99.9,-100.00,NW,307,2.0,-999.0,-999,-99.99,,,-99.99,,2013-03-23 07:52:00,
2013-03-23 04:03:00,40.0,-99.9,-100.00,NW,307,2.0,-999.0,-999,-99.99,,,-99.99,,2013-03-23 08:03:00,
2013-03-23 04:13:00,40.0,-99.9,-100.00,SSE,150,2.0,-999.0,-999,-99.99,,,-99.99,,2013-03-23 08:13:00,
2013-03-23 04:23:00,40.0,-99.9,-100.00,WNW,282,1.0,-999.0,-999,-99.99,,,-99.99,,2013-03-23 08:23:00,
2013-03-23 04:32:00,40.0,-99.9,-100.00,WNW,282,1.0,-999.0,-999,-99.99,,,-99.99,,2013-03-23 08:32:00,
2013-03-23 04:42:00,40.0,-99.9,-100.00,NW,318,2.0,-999.0,-999,-99.99,,,-99.99,,2013-03-23 08:42:00,
2013-03-23 04:53:00,40.0,-99.9,-100.00,NNW,342,2.0,-999.0,-999,-99.99,,,-99.99,,2013-03-23 08:53:00,
2013-03-23 05:02:00,40.0,-99.9,-100.00,NNW,342,2.0,-999.0,-999,-99.99,,,-99.99,,2013-03-23 09:02:00,
2013-03-23 05:12:00,41.0,-99.9,-100.00,ENE,74,2.0,-999.0,-999,-99.99,,,-99.99,,2013-03-23 09:12:00,
2013-03-23 05:22:00,41.0,-99.9,-100.00,WNW,291,1.0,-999.0,-999,-99.99,,,-99.99,,2013-03-23 09:22:00,
2013-03-23 05:33:00,41.0,-99.9,-100.00,WNW,291,1.0,-999.0,-999,-99.99,,,-99.99,,2013-03-23 09:33:00,
2013-03-23 05:43:00,40.0,-99.9,-100.00,WNW,294,2.0,-999.0,-999,-99.99,,,-99.99,,2013-03-23 09:43:00,
2013-03-23 05:53:00,40.0,-99.9,-100.00,NW,319,2.0,-999.0,-999,-99.99,,,-99.99,,2013-03-23 09:53:00,
2013-03-23 06:04:00,40.0,-99.9,-100.00,NW,319,2.0,-999.0,-999,-99.99,,,-99.99,,2013-03-23 10:04:00,
2013-03-23 06:13:00,41.0,-99.9,-100.00,North,10,3.0,-999.0,-999,-99.99,,,-99.99,,2013-03-23 10:13:00,
2013-03-23 06:24:00,41.0,-99.9,-100.00,ENE,62,3.0,-999.0,-999,-99.99,,,-99.99,,2013-03-23 10:24:00,
2013-03-23 06:34:00,41.0,-99.9,-100.00,ENE,62,3.0,-999.0,-999,-99.99,,,-99.99,,2013-03-23 10:34:00,
2013-03-23 06:43:00,41.0,-99.9,-100.00,NNE,15,2.0,-999.0,-999,-99.99,,,-99.99,,2013-03-23 10:43:00,
2013-03-23 06:53:00,41.0,-99.9,-100.00,ENE,72,3.0,-999.0,-999,-99.99,,,-99.99,,2013-03-23 10:53:00,
2013-03-23 07:04:00,41.0,-99.9,-100.00,ENE,72,3.0,-999.0,-999,-99.99,,,-99.99,,2013-03-23 11:04:00,
2013-03-23 07:12:00,41.0,-99.9,-100.00,ENE,57,3.0,-999.0,-999,-99.99,,,-99.99,,2013-03-23 11:12:00,
2013-03-23 07:22:00,41.0,-99.9,-100.00,NNE,28,3.0,-999.0,-999,-99.99,,,-99.99,,2013-03-23 11:22:00,
2013-03-23 07:32:00,41.0,-99.9,-100.00,NNE,28,3.0,-999.0,-999,-99.99,,,-99.99,,2013-03-23 11:32:00,
2013-03-23 07:42:00,41.0,-99.9,-100.00,NE,49,2.0,-999.0,-999,-99.99,,,0.00,,2013-03-23 11:42:00,
2013-03-23 07:52:00,41.0,-99.9,-100.00,NE,42,3.0,-999.0,-999,-99.99,,,-99.99,,2013-03-23 11:52:00,
2013-03-23 08:03:00,41.0,-99.9,-100.00,NE,42,3.0,-999.0,-999,-99.99,,,-99.99,,2013-03-23 12:03:00,
2013-03-23 08:13:00,41.0,-99.9,-100.00,NE,42,3.0,-999.0,-999,-99.99,,,-99.99,,2013-03-23 12:13:00,
2013-03-23 08:22:00,41.0,-99.9,-100.00,NE,46,4.0,-999.0,-999,-99.99,,,0.00,,2013-03-23 12:22:00,
2013-03-23 08:34:00,41.0,-99.9,-100.00,NE,46,4.0,-999.0,-999,-99.99,,,0.00,,2013-03-23 12:34:00,
2013-03-23 08:43:00,41.0,-99.9,-100.00,NE,46,4.0,-999.0,-999,-99.99,,,0.00,,2013-03-23 12:43:00,
2013-03-23 08:53:00,41.0,-99.9,-100.00,NNE,26,4.0,-999.0,-999,-99.99,,,-99.99,,2013-03-23 12:53:00,
2013-03-23 09:03:00,41.0,-99.9,-100.00,NNE,26,4.0,-999.0,-999,-99.99,,,-99.99,,2013-03-23 13:03:00,
2013-03-23 09:12:00,41.0,-99.9,-100.00,NNE,26,4.0,-999.0,-999,-99.99,,,-99.99,,2013-03-23 13:12:00,
2013-03-23 09:23:00,41.0,-99.9,-100.00,NNE,23,4.0,-999.0,-999,-99.99,,,0.00,,2013-03-23 13:23:00,
2013-03-23 09:33:00,41.0,-99.9,-100.00,NNE,23,4.0,-999.0,-999,-99.99,,,0.00,,2013-03-23 13:33:00,
2013-03-23 09:43:00,41.0,-99.9,-100.00,NNE,23,4.0,-999.0,-999,-99.99,,,0.00,,2013-03-23 13:43:00,
2013-03-23 09:53:00,41.0,-99.9,-100.00,NNE,29,5.0,-999.0,-999,-99.99,,,-99.99,,2013-03-23 13:53:00,
2013-03-23 10:00:00,42.0,-99.9,-100.00,NNE,30,5.0,-999.0,-999,-99.99,,,0.00,,2013-03-23 14:00:00,
2013-03-23 10:04:00,41.0,-99.9,-100.00,NNE,29,5.0,-999.0,-999,-99.99,,,-99.99,,2013-03-23 14:04:00,
2013-03-23 10:13:00,41.0,-99.9,-100.00,NNE,29,5.0,-999.0,-999,-99.99,,,-99.99,,2013-03-23 14:13:00,
2013-03-23 10:23:00,42.0,-99.9,-100.00,NNE,30,5.0,-999.0,-999,-99.99,,,0.00,,2013-03-23 14:23:00,
2013-03-23 10:33:00,42.0,-99.9,-100.00,NNE,30,5.0,-999.0,-999,-99.99,,,0.00,,2013-03-23 14:33:00,
2013-03-23 10:43:00,42.0,-99.9,-100.00,NNE,30,5.0,-999.0,-999,-99.99,,,0.00,,2013-03-23 14:43:00,
2013-03-23 10:53:00,42.0,-99.9,-100.00,NNE,30,5.0,-999.0,-999,-99.99,,,0.00,,2013-03-23 14:53:00,
2013-03-23 11:23:00,42.0,-99.9,-100.00,NNE,24,6.0,-999.0,-999,-99.99,,,0.00,,2013-03-23 15:23:00,
2013-03-23 11:34:00,42.0,-99.9,-100.00,NNE,24,6.0,-999.0,-999,-99.99,,,0.00,,2013-03-23 15:34:00,
2013-03-23 11:44:00,42.0,-99.9,-100.00,NNE,25,5.0,-999.0,-999,-99.99,,,0.00,,2013-03-23 15:44:00,
2013-03-23 11:53:00,43.0,-99.9,-100.00,NNE,13,7.0,-999.0,-999,-99.99,,,0.00,,2013-03-23 15:53:00,
2013-03-23 12:04:00,43.0,-99.9,-100.00,NNE,13,7.0,-999.0,-999,-99.99,,,0.00,,2013-03-23 16:04:00,
2013-03-23 12:13:00,43.0,-99.9,-100.00,NNE,13,7.0,-999.0,-999,-99.99,,,0.00,,2013-03-23 16:13:00,
2013-03-23 12:23:00,44.0,-99.9,-100.00,NNE,16,5.0,-999.0,-999,-99.99,,,0.00,,2013-03-23 16:23:00,
2013-03-23 12:33:00,44.0,-99.9,-100.00,NNE,16,5.0,-999.0,-999,-99.99,,,0.00,,2013-03-23 16:33:00,
2013-03-23 12:43:00,44.0,-99.9,-100.00,NNE,16,5.0,-999.0,-999,-99.99,,,0.00,,2013-03-23 16:43:00,
2013-03-23 12:54:00,45.0,-99.9,-100.00,NNE,25,4.0,-999.0,-999,-99.99,,,0.00,,2013-03-23 16:54:00,
2013-03-23 13:00:00,45.0,-99.9,-100.00,NNW,336,7.0,-999.0,-999,-99.99,,,0.00,,2013-03-23 17:00:00,
2013-03-23 13:03:00,45.0,-99.9,-100.00,NNE,25,4.0,-999.0,-999,-99.99,,,0.00,,2013-03-23 17:03:00,
2013-03-23 13:12:00,45.0,-99.9,-100.00,NNE,25,4.0,-999.0,-999,-99.99,,,0.00,,2013-03-23 17:12:00,
2013-03-23 13:23:00,45.0,-99.9,-100.00,NNW,336,7.0,-999.0,-999,-99.99,,,0.00,,2013-03-23 17:23:00,
2013-03-23 13:33:00,45.0,-99.9,-100.00,NNW,336,7.0,-999.0,-999,-99.99,,,0.00,,2013-03-23 17:33:00,
2013-03-23 13:43:00,45.0,-99.9,-100.00,NNW,336,7.0,-999.0,-999,-99.99,,,0.00,,2013-03-23 17:43:00,
2013-03-23 13:53:00,45.0,-99.9,-100.00,NNW,336,7.0,-999.0,-999,-99.99,,,0.00,,2013-03-23 17:53:00,
2013-03-23 14:23:00,48.0,-99.9,-100.00,North,1,6.0,-999.0,-999,-99.99,,,0.00,,2013-03-23 18:23:00,
2013-03-23 14:30:00,48.0,-99.9,-100.00,North,4,5.0,-999.0,-999,-99.99,,,0.00,,2013-03-23 18:30:00,
2013-03-23 14:32:00,48.0,-99.9,-100.00,North,1,6.0,-999.0,-999,-99.99,,,0.00,,2013-03-23 18:32:00,
2013-03-23 14:43:00,48.0,-99.9,-100.00,North,1,6.0,-999.0,-999,-99.99,,,0.00,,2013-03-23 18:43:00,
2013-03-23 14:53:00,48.0,-99.9,-100.00,North,4,5.0,-999.0,-999,-99.99,,,0.00,,2013-03-23 18:53:00,
2013-03-23 15:00:00,50.0,-99.9,-100.00,North,2,5.0,-999.0,-999,-99.99,,,0.00,,2013-03-23 19:00:00,
2013-03-23 15:03:00,48.0,-99.9,-100.00,North,4,5.0,-999.0,-999,-99.99,,,0.00,,2013-03-23 19:03:00,
2013-03-23 15:13:00,48.0,-99.9,-100.00,North,4,5.0,-999.0,-999,-99.99,,,0.00,,2013-03-23 19:13:00,
2013-03-23 15:23:00,48.0,-99.9,-100.00,North,4,5.0,-999.0,-999,-99.99,,,0.00,,2013-03-23 19:23:00,
2013-03-23 15:30:00,50.0,-99.9,-100.00,NNW,343,5.0,-999.0,-999,-99.99,,,0.00,,2013-03-23 19:30:00,
2013-03-23 15:43:00,50.0,-99.9,-100.00,North,2,5.0,-999.0,-999,-99.99,,,0.00,,2013-03-23 19:43:00,
2013-03-23 15:53:00,50.0,-99.9,-100.00,North,2,5.0,-999.0,-999,-99.99,,,0.00,,2013-03-23 19:53:00,
2013-03-23 16:00:00,52.0,-99.9,-100.00,North,7,5.0,-999.0,-999,-99.99,,,0.00,,2013-03-23 20:00:00,
2013-03-23 16:13:00,50.0,-99.9,-100.00,NNW,343,5.0,-999.0,-999,-99.99,,,0.00,,2013-03-23 20:13:00,
2013-03-23 16:23:00,50.0,-99.9,-100.00,NNW,343,5.0,-999.0,-999,-99.99,,,0.00,,2013-03-23 20:23:00,
2013-03-23 16:30:00,52.0,-99.9,-100.00,North,11,6.0,-999.0,-999,-99.99,,,0.00,,2013-03-23 20:30:00,
2013-03-23 16:43:00,52.0,-99.9,-100.00,North,7,5.0,-999.0,-999,-99.99,,,0.00,,2013-03-23 20:43:00,
2013-03-23 16:53:00,52.0,-99.9,-100.00,North,7,5.0,-999.0,-999,-99.99,,,0.00,,2013-03-23 20:53:00,
2013-03-23 17:00:00,53.0,-99.9,-100.00,NNE,30,5.0,-999.0,-999,-99.99,,,0.00,,2013-03-23 21:00:00,
2013-03-23 17:12:00,52.0,-99.9,-100.00,NNE,30,6.0,-999.0,-999,-99.99,,,0.00,,2013-03-23 21:12:00,
2013-03-23 17:23:00,52.0,-99.9,-100.00,North,11,6.0,-999.0,-999,-99.99,,,0.00,,2013-03-23 21:23:00,
2013-03-23 17:30:00,53.0,-99.9,-100.00,NNE,27,5.0,-999.0,-999,-99.99,,,0.00,,2013-03-23 21:30:00,
2013-03-23 17:44:00,53.0,-99.9,-100.00,NNE,30,5.0,-999.0,-999,-99.99,,,0.00,,2013-03-23 21:44:00,
2013-03-23 17:54:00,53.0,-99.9,-100.00,NNE,30,5.0,-999.0,-999,-99.99,,,0.00,,2013-03-23 21:54:00,
2013-03-23 18:00:00,53.0,-99.9,-100.00,NE,52,4.0,-999.0,-999,-99.99,,,0.00,,2013-03-23 22:00:00,
2013-03-23 18:13:00,53.0,-99.9,-100.00,NNE,32,4.0,-999.0,-999,-99.99,,,-99.99,,2013-03-23 22:13:00,
2013-03-23 18:24:00,53.0,-99.9,-100.00,NNE,27,5.0,-999.0,-999,-99.99,,,0.00,,2013-03-23 22:24:00,
2013-03-23 18:30:00,53.0,-99.9,-100.00,NW,325,1.0,-999.0,-999,-99.99,,,0.00,,2013-03-23 22:30:00,
2013-03-23 18:43:00,53.0,-99.9,-100.00,NE,52,4.0,-999.0,-999,-99.99,,,0.00,,2013-03-23 22:43:00,
2013-03-23 18:54:00,53.0,-99.9,-100.00,NE,52,4.0,-999.0,-999,-99.99,,,0.00,,2013-03-23 22:54:00,
2013-03-23 19:00:00,53.0,-99.9,-100.00,SE,145,2.0,-999.0,-999,-99.99,,,0.00,,2013-03-23 23:00:00,
2013-03-23 19:13:00,53.0,-99.9,-100.00,NW,325,1.0,-999.0,-999,-99.99,,,0.00,,2013-03-23 23:13:00,
2013-03-23 19:23:00,53.0,-99.9,-100.00,NW,325,1.0,-999.0,-999,-99.99,,,0.00,,2013-03-23 23:23:00,
2013-03-23 19:43:00,53.0,-99.9,-100.00,East,82,3.0,-999.0,-999,-99.99,,,0.00,,2013-03-23 23:43:00,
2013-03-23 19:53:00,53.0,-99.9,-100.00,SE,145,2.0,-999.0,-999,-99.99,,,0.00,,2013-03-23 23:53:00,
2013-03-23 20:13:00,53.0,-99.9,-100.00,East,86,4.0,-999.0,-999,-99.99,,,0.00,,2013-03-24 00:13:00,
2013-03-23 20:23:00,53.0,-99.9,-100.00,NE,48,5.0,-999.0,-999,-99.99,,,0.00,,2013-03-24 00:23:00,
2013-03-23 20:33:00,53.0,-99.9,-100.00,NE,48,5.0,-999.0,-999,-99.99,,,0.00,,2013-03-24 00:33:00,
2013-03-23 20:43:00,53.0,-99.9,-100.00,NE,36,5.0,-999.0,-999,-99.99,,,0.00,,2013-03-24 00:43:00,
2013-03-23 20:53:00,52.0,-99.9,-100.00,ENE,65,4.0,-999.0,-999,-99.99,,,0.00,,2013-03-24 00:53:00,
2013-03-23 21:02:00,52.0,-99.9,-100.00,ENE,65,4.0,-999.0,-999,-99.99,,,0.00,,2013-03-24 01:02:00,
2013-03-23 21:13:00,52.0,-99.9,-100.00,ENE,65,4.0,-999.0,-999,-99.99,,,0.00,,2013-03-24 01:13:00,
2013-03-23 21:22:00,52.0,-99.9,-100.00,NE,38,4.0,-999.0,-999,-99.99,,,0.00,,2013-03-24 01:22:00,
2013-03-23 21:33:00,52.0,-99.9,-100.00,NE,38,4.0,-999.0,-999,-99.99,,,0.00,,2013-03-24 01:33:00,
2013-03-23 21:43:00,52.0,-99.9,-100.00,NE,49,4.0,-999.0,-999,-99.99,,,0.00,,2013-03-24 01:43:00,
2013-03-23 21:53:00,51.0,-99.9,-100.00,NE,51,3.0,-999.0,-999,-99.99,,,0.00,,2013-03-24 01:53:00,
2013-03-23 22:03:00,51.0,-99.9,-100.00,NE,51,3.0,-999.0,-999,-99.99,,,0.00,,2013-03-24 02:03:00,
2013-03-23 22:12:00,51.0,-99.9,-100.00,ENE,60,4.0,-999.0,-999,-99.99,,,0.00,,2013-03-24 02:12:00,
2013-03-23 22:22:00,51.0,-99.9,-100.00,ENE,61,4.0,-999.0,-999,-99.99,,,0.00,,2013-03-24 02:22:00,
2013-03-23 22:33:00,51.0,-99.9,-100.00,ENE,61,4.0,-999.0,-999,-99.99,,,0.00,,2013-03-24 02:33:00,
2013-03-23 22:43:00,51.0,-99.9,-100.00,NE,54,4.0,-999.0,-999,-99.99,,,0.00,,2013-03-24 02:43:00,
2013-03-23 22:53:00,51.0,-99.9,-100.00,NE,50,6.0,-999.0,-999,-99.99,,,0.00,,2013-03-24 02:53:00,
2013-03-23 23:03:00,51.0,-99.9,-100.00,NE,50,6.0,-999.0,-999,-99.99,,,0.00,,2013-03-24 03:03:00,
2013-03-23 23:13:00,51.0,-99.9,-100.00,NE,50,6.0,-999.0,-999,-99.99,,,0.00,,2013-03-24 03:13:00,
2013-03-23 23:23:00,51.0,-99.9,-100.00,West,267,2.0,-999.0,-999,-99.99,,,0.00,,2013-03-24 03:23:00,
2013-03-23 23:33:00,51.0,-99.9,-100.00,West,267,2.0,-999.0,-999,-99.99,,,0.00,,2013-03-24 03:33:00,
2013-03-23 23:43:00,51.0,-99.9,-100.00,North,359,2.0,-999.0,-999,-99.99,,,0.00,,2013-03-24 03:43:00,
2013-03-23 23:53:00,51.0,-99.9,-100.00,NW,313,1.0,-999.0,-999,-99.99,,,0.00,,2013-03-24 03:53:00,